Location: *
(29.1167°S, 130.0000°E)
Time: 11:30:10
(UTC+00:00)

Cosmos 1953 Rocket - Pass Details

Date: 21 July 2019
Orbit: 604 x 635 km, 82.5° (Epoch: 21 August)

Event Time Altitude Azimuth Distance (km) Brightness Sun altitude
Rises 09:01:38 0° 190° (S) 2,963 6.9 -4.7°
Reaches altitude 10° 09:03:55 10° 192° (SSW) 2,046 6.1 -5.2°
Maximum altitude 09:08:25 68° 274° (W) 692 4.1 -6.1°
Drops below altitude 10° 09:12:51 10° 356° (N) 2,009 6.5 -7.0°
Sets 09:15:04 0° 359° (N) 2,904 7.3 -7.5°
